DW7764 Weather Reports


Display with metric or nautical units.
time (UTC)temp
F
wind
direction
speed
MPH
gust
MPH
rain 1hr
in
rain 24hr
in
rain mn
in
humidity
%
barometer
mb
20260904074511 79 274 0.0 1.0 0.00 0.00 0.00 76 1023.9
20260904073006 77 274 0.0 4.0 0.00 0.00 0.00 80 1023.8
20260904071504 75 280 0.0 4.0 0.00 0.00 0.00 83 1023.8
20260904070003 74 264 1.0 3.0 0.00 0.00 0.00 85 1023.8
20260904064502 72 272 0.0 3.0 0.00 0.00 0.00 89 1023.9
20260904063001 70 273 0.0 0.0 0.00 0.00 0.00 93 1023.9
20260904061606 69 272 0.0 0.0 0.00 0.00 0.00 94 1023.8
20260904060058 68 273 0.0 0.0 0.00 0.00 0.00 93 1023.7
20260904054558 68 273 0.0 0.0 0.00 0.00 0.00 93 1023.6
20260904053059 68 272 0.0 0.0 0.00 0.00 0.00 93 1023.6
20260904051557 69 272 0.0 0.0 0.00 0.00 0.00 93 1023.6
20260904050055 69 273 0.0 0.0 0.00 0.00 0.00 93 1023.5
20260904044552 69 273 0.0 0.0 0.00 0.00 0.00 93 1023.7
20260904043059 69 273 0.0 0.0 0.00 0.00 0.00 93 1023.7
20260904041547 70 273 0.0 0.0 0.00 0.00 0.00 93 1023.9
20260904040046 70 273 0.0 0.0 0.00 0.00 0.00 93 1023.9
20260904034550 71 273 0.0 0.0 0.00 0.00 0.00 92 1024.0
20260904033042 71 272 0.0 0.0 0.00 0.00 0.00 92 1024.0
20260904031543 72 272 0.0 0.0 0.00 0.00 0.00 91 1024.2
20260904030038 73 273 0.0 1.0 0.00 0.00 0.00 90 1024.2
20260904024535 73 273 0.0 0.0 0.00 0.00 0.00 90 1024.3
20260904023032 74 273 0.0 3.0 0.00 0.00 0.00 89 1024.4
20260904021537 74 274 0.0 4.0 0.00 0.00 0.00 90 1024.5
20260904020030 74 280 1.0 5.0 0.00 0.00 0.00 90 1024.6
20260904014529 74 257 1.0 4.0 0.00 0.00 0.00 91 1024.7
20260904013026 74 274 0.0 3.0 0.00 0.00 0.00 91 1024.8
20260904011527 74 249 0.0 3.0 0.00 0.00 0.00 90 1024.9
20260904010023 74 249 0.0 4.0 0.00 0.00 0.00 90 1025.1
20260904004522 75 273 0.0 3.0 0.00 0.00 0.00 90 1025.2
20260904003020 75 267 1.0 2.0 0.00 0.00 0.00 90 1025.3
20260904001617 75 243 0.0 4.0 0.00 0.00 0.00 90 1025.4
20260904000046 75 262 0.0 3.0 0.00 0.00 0.00 90 1025.5
20260903234514 75 262 1.0 3.0 0.00 0.00 0.00 90 1025.6
20260903233012 75 270 0.0 4.0 0.00 0.00 0.00 90 1025.7
20260903231512 75 285 0.0 4.0 0.00 0.00 0.00 90 1025.8
20260903230020 76 277 0.0 4.0 0.00 0.00 0.00 89 1025.8
20260903224527 76 290 1.0 4.0 0.00 0.00 0.00 89 1025.8
20260903223008 76 264 0.0 4.0 0.00 0.00 0.00 88 1025.7
20260903221506 76 271 0.0 5.0 0.00 0.00 0.00 87 1025.8
20260903220004 76 257 1.0 5.0 0.00 0.00 0.00 86 1025.7
20260903214503 76 269 0.0 4.0 0.00 0.00 0.00 84 1025.9
20260903213012 77 273 0.0 2.0 0.00 0.00 0.00 82 1025.8
20260903211502 77 273 0.0 3.0 0.00 0.00 0.00 83 1025.9
20260903210002 77 278 1.0 4.0 0.00 0.00 0.00 82 1025.9
20260903204501 77 290 0.0 5.0 0.00 0.00 0.00 82 1025.8
20260903203000 78 166 0.0 3.0 0.00 0.00 0.00 81 1026.0
20260903201601 78 218 0.0 2.0 0.00 0.00 0.00 81 1025.8
20260903200100 78 148 0.0 1.0 0.00 0.00 0.00 81 1025.9
20260903194600 77 148 0.0 1.0 0.00 0.00 0.00 81 1026.0
20260903193059 78 148 0.0 1.0 0.00 0.00 0.00 80 1025.8
20260903191558 78 148 0.0 1.0 0.00 0.00 0.00 78 1025.6
20260903190105 79 150 1.0 3.0 0.00 0.00 0.00 77 1025.4
20260903184557 80 271 0.0 1.0 0.00 0.00 0.00 72 1025.2
20260903183059 81 271 0.0 3.0 0.00 0.00 0.00 69 1025.0
20260903181558 82 270 1.0 7.0 0.00 0.00 0.00 68 1025.0
20260903180057 83 283 0.0 5.0 0.00 0.00 0.00 66 1024.9
20260903174555 85 266 1.0 4.0 0.00 0.00 0.00 63 1024.8
20260903173055 86 252 3.0 8.0 0.00 0.00 0.00 62 1024.8
20260903171555 87 205 0.0 7.0 0.00 0.00 0.00 61 1024.7
20260903170058 86 259 0.0 8.0 0.00 0.00 0.00 60 1024.6
20260903164557 86 148 4.0 9.0 0.00 0.00 0.00 60 1024.5
20260903163107 86 135 4.0 13.0 0.00 0.00 0.00 60 1024.6
20260903161550 87 116 3.0 7.0 0.00 0.00 0.00 59 1024.5
20260903160055 87 187 6.0 13.0 0.00 0.00 0.00 58 1024.6
20260903154546 87 152 5.0 11.0 0.00 0.00 0.00 58 1024.7
20260903153045 88 180 6.0 12.0 0.00 0.00 0.00 55 1024.6
20260903151542 89 113 5.0 11.0 0.00 0.00 0.00 54 1024.6
20260903150052 89 181 4.0 10.0 0.00 0.00 0.00 53 1024.7
20260903144535 90 89 3.0 13.0 0.00 0.00 0.00 51 1024.7
20260903143037 90 152 3.0 13.0 0.00 0.00 0.00 51 1024.7
20260903141535 90 135 2.0 10.0 0.00 0.00 0.00 51 1024.8
20260903140031 89 128 4.0 11.0 0.00 0.00 0.00 52 1024.8
20260903134530 90 158 5.0 12.0 0.00 0.00 0.00 50 1025.0
20260903133028 90 150 4.0 12.0 0.00 0.00 0.00 50 1025.2
20260903131527 90 204 4.0 11.0 0.00 0.00 0.00 49 1025.2
20260903130026 91 178 4.0 10.0 0.00 0.00 0.00 48 1025.3
20260903124526 92 167 3.0 11.0 0.00 0.00 0.00 47 1025.3
20260903123028 91 155 1.0 8.0 0.00 0.00 0.00 44 1025.4
20260903121521 90 76 3.0 15.0 0.00 0.00 0.00 44 1025.3
20260903120020 91 142 2.0 12.0 0.00 0.00 0.00 42 1025.4
20260903114520 91 133 0.0 9.0 0.00 0.00 0.00 41 1025.5
20260903113017 90 222 3.0 10.0 0.00 0.00 0.00 42 1025.7
20260903111515 90 134 0.0 10.0 0.00 0.00 0.00 43 1025.9
20260903110013 90 61 2.0 9.0 0.00 0.00 0.00 44 1025.9
20260903104511 89 89 3.0 7.0 0.00 0.00 0.00 46 1026.2
20260903103008 88 37 2.0 7.0 0.00 0.00 0.00 46 1026.3
20260903101506 88 141 2.0 8.0 0.00 0.00 0.00 48 1026.7
20260903100011 87 87 1.0 5.0 0.00 0.00 0.00 49 1026.6
20260903094503 88 113 0.0 4.0 0.00 0.00 0.00 46 1026.7
20260903093127 86 98 0.0 2.0 0.00 0.00 0.00 48 1026.8
20260903091557 85 119 0.0 3.0 0.00 0.00 0.00 51 1026.9
20260903090054 84 123 0.0 3.0 0.00 0.00 0.00 50 1026.7
20260903084552 84 115 0.0 4.0 0.00 0.00 0.00 52 1026.7
20260903083055 84 126 0.0 1.0 0.00 0.00 0.00 53 1026.6
20260903081546 82 122 0.0 2.0 0.00 0.00 0.00 56 1026.5
20260903080043 81 158 0.0 1.0 0.00 0.00 0.00 59 1026.6